When you browse on this site, cookies collect data to enhance your experience and personalize the content and advertising you see.
Visit our Privacy Policy to learn more. By continuing to use the site, you agree to this use of cookies and data.
  • In Österreich
  • Länderverzeichnis
  • Für 7 Tage
  • Wassertemperatur
  • Wetterkarte
  • News
  • Widgets
  • user-avatar
    Anmelden

    Stündliche Wetter Tepepa

    Heute, 14 Oktober, Montag

    Zeit Temperatur Niederschläge Wind Luftdruck Luftfeuchtigkeit
    00:00 +12°C° 0 mm 0 m/S 585 mmHg 95%
    01:00 +11°C° 0 mm 0 m/S 585 mmHg 95%
    02:00 +11°C° 0 mm 0 m/S 584 mmHg 96%
    03:00 +12°C° 0 mm 1 m/S 584 mmHg 95%
    04:00 +12°C° 0 mm 1 m/S 584 mmHg 95%
    05:00 +11°C° 0 mm 1 m/S 584 mmHg 94%
    06:00 +13°C° 0 mm 1 m/S 585 mmHg 88%
    07:00 +15°C° 0 mm 1 m/S 586 mmHg 81%
    08:00 +18°C° 0 mm 1 m/S 588 mmHg 74%
    09:00 +18°C° 0 mm 2 m/S 588 mmHg 68%
    10:00 +20°C° 0 mm 2 m/S 588 mmHg 63%
    11:00 +21°C° 0 mm 3 m/S 588 mmHg 57%
    12:00 +20°C° 0 mm 3 m/S 587 mmHg 61%
    13:00 +20°C° 0 mm 3 m/S 587 mmHg 65%
    14:00 +20°C° 0 mm 3 m/S 586 mmHg 69%
    15:00 +18°C° 0.1 mm 3 m/S 585 mmHg 78%
    16:00 +17°C° 0.1 mm 2 m/S 585 mmHg 87%
    17:00 +15°C° 0.1 mm 1 m/S 584 mmHg 96%
    18:00 +15°C° 0.2 mm 1 m/S 585 mmHg 96%
    19:00 +15°C° 0.2 mm 1 m/S 586 mmHg 96%
    20:00 +13°C° 0.2 mm 0 m/S 586 mmHg 95%
    21:00 +13°C° 0 mm 0 m/S 586 mmHg 95%
    22:00 +13°C° 0 mm 0 m/S 586 mmHg 95%
    23:00 +13°C° 0 mm 0 m/S 586 mmHg 94%

    Morgen, 15 Oktober, Dienstag

    Zeit Temperatur Niederschläge Wind Luftdruck Luftfeuchtigkeit
    00:00 +12°C° 0 mm 0 m/S 585 mmHg 94%
    01:00 +12°C° 0 mm 0 m/S 585 mmHg 95%
    02:00 +11°C° 0 mm 0 m/S 584 mmHg 95%
    03:00 +11°C° 0 mm 0 m/S 584 mmHg 95%
    04:00 +11°C° 0 mm 1 m/S 584 mmHg 94%
    05:00 +11°C° 0 mm 1 m/S 584 mmHg 94%
    06:00 +13°C° 0 mm 1 m/S 585 mmHg 87%
    07:00 +15°C° 0 mm 1 m/S 586 mmHg 80%
    08:00 +18°C° 0 mm 1 m/S 587 mmHg 74%
    09:00 +18°C° 0 mm 2 m/S 587 mmHg 69%
    10:00 +19°C° 0 mm 2 m/S 587 mmHg 64%
    11:00 +21°C° 0 mm 3 m/S 588 mmHg 58%
    12:00 +20°C° 0.1 mm 3 m/S 587 mmHg 64%
    13:00 +20°C° 0.1 mm 3 m/S 586 mmHg 69%
    14:00 +19°C° 0.1 mm 3 m/S 585 mmHg 74%
    15:00 +18°C° 0.2 mm 2 m/S 584 mmHg 81%
    16:00 +17°C° 0.2 mm 2 m/S 584 mmHg 88%
    17:00 +15°C° 0.2 mm 1 m/S 583 mmHg 95%
    18:00 +15°C° 0 mm 1 m/S 584 mmHg 96%
    19:00 +14°C° 0 mm 1 m/S 584 mmHg 96%
    20:00 +14°C° 0 mm 1 m/S 584 mmHg 96%
    21:00 +14°C° 0 mm 1 m/S 584 mmHg 96%
    22:00 +13°C° 0 mm 1 m/S 584 mmHg 96%
    23:00 +13°C° 0 mm 1 m/S 584 mmHg 95%

    übermorgen, 16 Oktober, Mittwoch

    Zeit Temperatur Niederschläge Wind Luftdruck Luftfeuchtigkeit
    00:00 +13°C° 0 mm 1 m/S 584 mmHg 95%
    01:00 +13°C° 0 mm 1 m/S 583 mmHg 95%
    02:00 +13°C° 0 mm 1 m/S 583 mmHg 95%
    03:00 +13°C° 0 mm 1 m/S 583 mmHg 95%
    04:00 +12°C° 0 mm 1 m/S 583 mmHg 95%
    05:00 +12°C° 0 mm 1 m/S 583 mmHg 95%
    06:00 +13°C° 0 mm 1 m/S 584 mmHg 92%
    07:00 +14°C° 0 mm 1 m/S 584 mmHg 88%
    08:00 +15°C° 0 mm 1 m/S 585 mmHg 85%
    09:00 +15°C° 0.2 mm 1 m/S 585 mmHg 86%
    10:00 +15°C° 0.2 mm 1 m/S 585 mmHg 87%
    11:00 +15°C° 0.2 mm 1 m/S 584 mmHg 89%
    12:00 +15°C° 0.8 mm 1 m/S 584 mmHg 92%
    13:00 +15°C° 0.8 mm 1 m/S 583 mmHg 94%
    14:00 +14°C° 0.8 mm 1 m/S 583 mmHg 97%
    15:00 +14°C° 1.3 mm 1 m/S 583 mmHg 98%
    16:00 +14°C° 1.3 mm 1 m/S 583 mmHg 98%
    17:00 +14°C° 1.3 mm 1 m/S 583 mmHg 98%
    18:00 +14°C° 1.1 mm 1 m/S 583 mmHg 98%
    19:00 +14°C° 1.1 mm 1 m/S 584 mmHg 98%
    20:00 +14°C° 1.1 mm 1 m/S 584 mmHg 98%
    21:00 +14°C° 0.5 mm 1 m/S 584 mmHg 98%
    22:00 +14°C° 0.5 mm 1 m/S 584 mmHg 98%
    23:00 +14°C° 0.5 mm 1 m/S 584 mmHg 98%

    17 Oktober, Donnerstag

    Zeit Temperatur Niederschläge Wind Luftdruck Luftfeuchtigkeit
    00:00 +14°C° 0.9 mm 1 m/S 583 mmHg 98%
    01:00 +13°C° 0.9 mm 0 m/S 583 mmHg 98%
    02:00 +13°C° 0.9 mm 0 m/S 583 mmHg 98%
    03:00 +13°C° 0.7 mm 0 m/S 583 mmHg 98%
    04:00 +13°C° 0.7 mm 0 m/S 583 mmHg 97%
    05:00 +13°C° 0.7 mm 0 m/S 583 mmHg 97%
    06:00 +13°C° 0.4 mm 0 m/S 584 mmHg 96%
    07:00 +14°C° 0.4 mm 0 m/S 584 mmHg 94%
    08:00 +14°C° 0.4 mm 0 m/S 585 mmHg 93%
    09:00 +16°C° 0.4 mm 1 m/S 585 mmHg 91%
    10:00 +18°C° 0.4 mm 1 m/S 585 mmHg 89%
    11:00 +18°C° 0.4 mm 1 m/S 585 mmHg 87%
    12:00 +18°C° 0.8 mm 1 m/S 585 mmHg 88%
    13:00 +18°C° 0.8 mm 1 m/S 584 mmHg 90%
    14:00 +16°C° 0.8 mm 1 m/S 583 mmHg 91%
    15:00 +16°C° 0.6 mm 1 m/S 583 mmHg 93%
    16:00 +15°C° 0.6 mm 1 m/S 583 mmHg 95%
    17:00 +15°C° 0.6 mm 1 m/S 583 mmHg 97%
    18:00 +15°C° 0.3 mm 1 m/S 583 mmHg 97%
    19:00 +15°C° 0.3 mm 1 m/S 584 mmHg 98%
    20:00 +14°C° 0.3 mm 1 m/S 584 mmHg 98%
    21:00 +13°C° 0.1 mm 0 m/S 584 mmHg 98%
    22:00 +13°C° 0.1 mm 0 m/S 584 mmHg 97%
    23:00 +13°C° 0.1 mm 0 m/S 584 mmHg 97%

    18 Oktober, Freitag

    Zeit Temperatur Niederschläge Wind Luftdruck Luftfeuchtigkeit
    00:00 +14°C° 0 mm 1 m/S 583 mmHg 96%
    01:00 +14°C° 0 mm 1 m/S 583 mmHg 95%
    02:00 +13°C° 0 mm 1 m/S 583 mmHg 95%
    03:00 +13°C° 0 mm 1 m/S 583 mmHg 94%
    04:00 +13°C° 0 mm 1 m/S 583 mmHg 93%
    05:00 +13°C° 0 mm 1 m/S 582 mmHg 93%
    06:00 +15°C° 0 mm 1 m/S 584 mmHg 88%
    07:00 +16°C° 0 mm 1 m/S 585 mmHg 83%
    08:00 +19°C° 0 mm 1 m/S 586 mmHg 77%
    09:00 +20°C° 0.4 mm 1 m/S 586 mmHg 76%
    10:00 +20°C° 0.4 mm 1 m/S 586 mmHg 75%
    11:00 +20°C° 0.4 mm 2 m/S 586 mmHg 74%
    12:00 +19°C° 1 mm 2 m/S 585 mmHg 80%
    13:00 +18°C° 1 mm 2 m/S 584 mmHg 85%
    14:00 +18°C° 1 mm 1 m/S 582 mmHg 90%
    15:00 +18°C° 0.4 mm 1 m/S 582 mmHg 92%
    16:00 +16°C° 0.4 mm 1 m/S 582 mmHg 95%
    17:00 +16°C° 0.4 mm 1 m/S 582 mmHg 97%
    18:00 +16°C° 0.1 mm 1 m/S 583 mmHg 97%
    19:00 +15°C° 0.1 mm 1 m/S 583 mmHg 97%
    20:00 +14°C° 0.1 mm 0 m/S 583 mmHg 97%
    21:00 +14°C° 0.1 mm 0 m/S 583 mmHg 96%
    22:00 +14°C° 0.1 mm 0 m/S 583 mmHg 95%
    23:00 +14°C° 0.1 mm 0 m/S 583 mmHg 95%

    19 Oktober, Samstag

    Zeit Temperatur Niederschläge Wind Luftdruck Luftfeuchtigkeit
    00:00 +13°C° 0.1 mm 0 m/S 583 mmHg 94%
    01:00 +13°C° 0.1 mm 0 m/S 582 mmHg 92%
    02:00 +13°C° 0.1 mm 0 m/S 582 mmHg 91%
    03:00 +13°C° 0 mm 0 m/S 582 mmHg 91%
    04:00 +12°C° 0 mm 0 m/S 582 mmHg 91%
    05:00 +12°C° 0 mm 0 m/S 581 mmHg 91%
    06:00 +15°C° 0 mm 1 m/S 582 mmHg 86%
    07:00 +16°C° 0 mm 1 m/S 583 mmHg 82%
    08:00 +19°C° 0 mm 1 m/S 584 mmHg 77%
    09:00 +19°C° 0.1 mm 2 m/S 585 mmHg 75%
    10:00 +20°C° 0.1 mm 2 m/S 585 mmHg 73%
    11:00 +21°C° 0.1 mm 3 m/S 585 mmHg 71%
    12:00 +20°C° 0.8 mm 3 m/S 584 mmHg 75%
    13:00 +19°C° 0.8 mm 3 m/S 583 mmHg 80%
    14:00 +18°C° 0.8 mm 3 m/S 582 mmHg 85%
    15:00 +17°C° 0.5 mm 2 m/S 582 mmHg 88%
    16:00 +16°C° 0.5 mm 2 m/S 581 mmHg 92%
    17:00 +15°C° 0.5 mm 1 m/S 581 mmHg 96%
    18:00 +15°C° 0.1 mm 1 m/S 582 mmHg 96%
    19:00 +15°C° 0.1 mm 1 m/S 582 mmHg 96%
    20:00 +14°C° 0.1 mm 1 m/S 582 mmHg 97%
    21:00 +14°C° 0.1 mm 1 m/S 582 mmHg 96%
    22:00 +14°C° 0.1 mm 1 m/S 582 mmHg 96%
    23:00 +14°C° 0.1 mm 1 m/S 582 mmHg 96%
    Mehr zeigen